Regional Weather Roundup
Issued by NWS

Home | Current Version | Previous Version | Text Only | Print | Product List | Glossary Off
Versions: 1 2 3 4 5 6 7 8 9 10 11 12 13 14 15 16 17 18 19 20 21 22 23 24 25 26 27

000
ASUS45 KTFX 240510
RWRMT
MONTANA REGIONAL WEATHER ROUNDUP
NATIONAL WEATHER SERVICE GREAT FALLS MT
1000 PM MST THU FEB 23 2017

NOTE: "FAIR" INDICATES FEW OR NO CLOUDS BELOW 12000 FEET WITH NO
SIGNIFICANT WEATHER AND/OR OBSTRUCTIONS TO VISIBILITY.

MTZ001>007-043-240600-
WEST OF THE DIVIDE

CITY           SKY/WX    TMP DP  RH WIND       PRES   REMARKS
KALISPELL      CLEAR     22  19  89 S3        29.96S
MISSOULA       MOCLDY    30  23  75 NW8       29.96S WCI  22
BUTTE          CLOUDY    22  15  75 NW8       29.85R WCI  12
MULLAN PASS    CLOUDY    15  14  95 VRB3      29.86R FOG
ANACONDA         N/A     23  14  68 N7        29.88S WCI  15
DEER LODGE       N/A     25  16  68 NW7       29.92S WCI  17
EUREKA           N/A     18  12  79 CALM      30.00R
HAMILTON         N/A     30  21  69 N12       29.93S WCI  21
LIBBY            N/A     23  19  86 SE3       30.00R
PLAINS           N/A     23  15  71 CALM      30.01R
RONAN            N/A     25  20  81 CALM      29.99S
$$

MTZ008-052>055-240600-
SOUTHWEST MONTANA

CITY           SKY/WX    TMP DP  RH WIND       PRES   REMARKS
BOZEMAN        CLOUDY    26  16  65 N7        29.89R WCI  18
DILLON         CLOUDY    25  16  68 NE15      29.82R WCI  13
W YELLOWSTONE  LGT SNOW  18  14  86 CALM      29.78R
ENNIS          CLOUDY    21  14  73 N15       29.87R WCI   8
THREE FORKS      N/A     25 -16  16 SW6       29.90S WCI  18
TWIN BRIDGES     N/A     25  15  65 N16       29.84R WCI  12
$$

MTZ009-010-012-014-046-048-049-054-240600-
EAST SLOPES AND CENTRAL MONTANA

CITY           SKY/WX    TMP DP  RH WIND       PRES   REMARKS
CUT BANK       CLOUDY    23  18  81 SE12      29.95F WCI  12
GREAT FALLS    CLOUDY    24  22  91 NE8       29.96F WCI  15
MALMSTROM AFB  CLOUDY    25  25 100 N6        29.98F WCI  18
HELENA         CLOUDY    27  22  81 W7        29.93S WCI  19
AUGUSTA        FLURRIES  20  19  98 SW3       29.93S
BOWMANS CRNR   FLURRIES  20  20  97 E6        29.92S WCI  13
CHOTEAU          N/A     19  18  93 CALM      29.97F
CONRAD           N/A     22  20  92 NE2       29.99F
POWER          FLURRIES  23  22  95 E6        29.96F WCI  15
RAYNESFORD     MOCLDY    23  20  90 SE13      29.95S WCI  11
ULM            FLURRIES  25  23  94 MISG      29.97S
$$

MTZ011-013-016-021-045-047-050-051-240600-
NORTH CENTRAL MONTANA

CITY           SKY/WX    TMP DP  RH WIND       PRES   REMARKS
HAVRE          CLOUDY    26  24  92 E8        30.03F WCI  18
LEWISTOWN      CLOUDY    22  17  81 E12       29.96S WCI  10
N BAR RANCH    CLOUDY    21  19  93 E8        29.98F WCI  12
CHINOOK          N/A     27  25  93 E8        30.06S WCI  18
DENTON         MOCLDY    23  20  91 SE13      29.96S WCI  11
FORT BENTON      N/A     27  23  86 MISG      30.02F
GEYSER         CLOUDY    24  22  93 E7        29.95S WCI  16
GRASS RANGE    FLURRIES  24  23  99 E5        29.96S
JUDITH GAP     FLURRIES  20  16  83 SE8       29.94R WCI  11
ROY            SNOWSHWR  25  25  99 MISG      29.99S VSB 5/8
STANFORD       CLOUDY    22  18  84 S8        29.94S WCI  13
WINIFRED       MOCLDY    22  21  97 E9        29.98S WCI  12
$$

MTZ017>020-022>027-061-062-240600-
NORTHEAST MONTANA

CITY           SKY/WX    TMP DP  RH WIND       PRES   REMARKS
GLASGOW        CLOUDY    25  19  78 SE8       30.11S WCI  16
JORDAN           N/A     27  23  85 E10       30.07R WCI  17
SIDNEY         CLOUDY    25  18  74 E6        30.15S WCI  18
WOLF POINT     CLOUDY    27  19  72 E8        30.14F WCI  19
PLENTYWOOD       N/A     25  16  68 CALM      30.13S
POPLAR           N/A     25  16  68 E6        30.15F WCI  18
SCOBEY           N/A     25  13  60 CALM      30.09S
$$

MTZ028>42-056>058-240600-
SOUTHCENTRAL AND SOUTHEAST MONTANA

CITY           SKY/WX    TMP DP  RH WIND       PRES   REMARKS
BAKER          CLOUDY    24  21  88 E8        30.06S WCI  15
BILLINGS       FLURRIES  26  24  92 NE13      29.97F WCI  15
LIVINGSTON     FLURRIES  22  18  85 E16       29.90S WCI   8
MILES CITY     CLOUDY    28  24  85 NE10      30.05F WCI  19
BIG TIMBER     MOCLDY    21  21 100 NE5       29.96F FOG
EKALAKA          N/A     23  19  85 E6        29.99R WCI  16
FORSYTH          N/A    N/A N/A N/A E6        30.04S
HARLOWTON      FLURRIES  21  19  92 SE6       29.96R WCI  14
LAUREL           N/A     26  17  68 N6        29.95S WCI  19
$$

REGIONAL REPORTS...DAKOTAS

CITY           SKY/WX    TMP DP  RH WIND       PRES   REMARKS
WILLISTON      CLEAR     12   9  87 CALM      30.16S
MINOT          MOCLDY    20  15  81 SW7       30.13S WCI  11
DICKINSON      CLOUDY    12   8  84 N5        30.08R
BEACH            N/A    N/A N/A N/A MISG        N/A
CROSBY         CLOUDY    25  23  93 SW6       30.15F WCI  18
TIOGA          CLOUDY    14  14 100 W6        30.15S WCI   5
WATFORD CITY     N/A     10  10 100 CALM      30.15S
BISMARCK       MOCLDY    19  14  81 N9        30.13R WCI   8
GRAND FORKS    CLOUDY    20  11  68 N10       30.13R WCI   9
FARGO          CLOUDY    23  15  71 N16       30.10R WCI  10
BUFFALO SD       N/A     25  23  92 NE15      29.97R WCI  13
RAPID CITY     FLURRIES  25  21  85 NE14      29.98S WCI  13
$$

REGIONAL REPORTS...WYOMING/IDAHO/WASHINGTON

CITY           SKY/WX    TMP DP  RH WIND       PRES   REMARKS
GILLETTE         N/A     24  18  77 E8        29.93S WCI  15
SHERIDAN       LGT SNOW  24  22  91 SE10      29.96S FOG     WCI  14
BUFFALO WY     LGT SNOW  22  18  85 NW7       29.93R FOG     WCI  13
CODY           FLURRIES  21  16  81 NW5       29.90S
YELLOWSTONE LA   N/A     10   6  84 CALM      29.75R
IDAHO FALLS    CLOUDY    23  22  96 S21G29    29.80S WCI   8
SALMON         CLOUDY    28  21  74 E7        29.84S WCI  21
BOISE          CLOUDY    30  23  75 NW22      29.97R WCI  17
SPOKANE        PTCLDY    26  23  88 S6        30.05R WCI  19
$$

REGIONAL REPORTS...ALBERTA

CITY           SKY/WX    TMP DP  RH WIND       PRES   REMARKS
EDMONTON       CLOUDY    23  19  86 CALM      30.02S
CALGARY        MOCLDY    19  14  79 S5        29.94S
LETHBRIDGE     PTCLDY    23  19  86 S7        29.97F WCI  15
MEDICINE HAT   MOCLDY    21  18  86 E6        30.05S WCI  14
WATERTON GATE    N/A     10   7  85 W5          N/A
CARDSTON         N/A     14   9  79 S3          N/A
MILK RIVER       N/A     25  21  86 S10         N/A  WCI  15
ONEFOUR          N/A     21  19  93 E9          N/A  WCI  11
$$

REGIONAL REPORTS...SASKATCHEWAN

CITY           SKY/WX    TMP DP  RH WIND       PRES   REMARKS
SWIFT CURRENT  CLOUDY    19  16  86 S6        30.06S WCI  11
REGINA         CLOUDY    27  18  69 W2        30.11F
SASKATOON      MOCLDY    19  16  86 NE3       30.13R
CYPRESS HILLS    N/A     16  12  86 S8          N/A  WCI   5
VAL MARIE        N/A     23  19  86 SE7         N/A  WCI  15
ROCKGLEN         N/A     21  14  73 S3          N/A
ASSINIBOIA       N/A     21  18  86 NW1         N/A
$$




USA.gov is the U.S. government's official web portal to all federal, state and local government web resources and services.